| time (UTC) | temp F | wind direction | speed MPH | gust MPH | rain 1hr in | rain 24hr in | rain mn in | humidity % | barometer mb |
| 20260505080541 | 91 | 131 | 7.0 | 19.0 | 0.00 | 0.00 | 0.00 | 63 | 1008.3 |
| 20260505080042 | 91 | 88 | 5.0 | 19.0 | 0.00 | 0.00 | 0.00 | 63 | 1008.4 |
| 20260505075541 | 91 | 107 | 4.0 | 19.0 | 0.00 | 0.00 | 0.00 | 63 | 1008.2 |
| 20260505074541 | 92 | 140 | 5.0 | 17.0 | 0.00 | 0.00 | 0.00 | 63 | 1008.4 |
| 20260505074041 | 93 | 99 | 6.0 | 16.0 | 0.00 | 0.00 | 0.00 | 60 | 1008.1 |
| 20260505073541 | 92 | 82 | 4.0 | 17.0 | 0.00 | 0.00 | 0.00 | 59 | 1008.2 |
| 20260505073041 | 92 | 120 | 10.0 | 17.0 | 0.00 | 0.00 | 0.00 | 57 | 1008.2 |
| 20260505072541 | 93 | 85 | 2.0 | 18.0 | 0.00 | 0.00 | 0.00 | 57 | 1008.1 |
| 20260505072041 | 93 | 112 | 5.0 | 18.0 | 0.00 | 0.00 | 0.00 | 59 | 1008.2 |
| 20260505071541 | 93 | 133 | 8.0 | 16.0 | 0.00 | 0.00 | 0.00 | 59 | 1008.3 |
| 20260505071041 | 93 | 80 | 4.0 | 14.0 | 0.00 | 0.00 | 0.00 | 59 | 1008.5 |
| 20260505070542 | 92 | 108 | 5.0 | 15.0 | 0.00 | 0.00 | 0.00 | 60 | 1008.3 |
| 20260505070041 | 92 | 144 | 6.0 | 15.0 | 0.00 | 0.00 | 0.00 | 59 | 1008.3 |
| 20260505065541 | 92 | 83 | 5.0 | 14.0 | 0.00 | 0.00 | 0.00 | 60 | 1008.4 |
| 20260505065041 | 92 | 91 | 11.0 | 14.0 | 0.00 | 0.00 | 0.00 | 60 | 1008.4 |
| 20260505064542 | 92 | 96 | 6.0 | 14.0 | 0.00 | 0.00 | 0.00 | 59 | 1008.5 |
| 20260505064041 | 93 | 104 | 5.0 | 15.0 | 0.00 | 0.00 | 0.00 | 58 | 1008.4 |
| 20260505063541 | 92 | 140 | 7.0 | 17.0 | 0.00 | 0.00 | 0.00 | 60 | 1008.6 |
| 20260505063041 | 91 | 82 | 4.0 | 17.0 | 0.00 | 0.00 | 0.00 | 62 | 1008.6 |
| 20260505062541 | 92 | 84 | 5.0 | 17.0 | 0.00 | 0.00 | 0.00 | 61 | 1008.6 |
| 20260505062041 | 92 | 116 | 7.0 | 17.0 | 0.00 | 0.00 | 0.00 | 61 | 1008.6 |
| 20260505061541 | 92 | 126 | 7.0 | 14.0 | 0.00 | 0.00 | 0.00 | 61 | 1008.7 |
| 20260505060541 | 91 | 133 | 6.0 | 20.0 | 0.00 | 0.00 | 0.00 | 62 | 1008.8 |
| 20260505060041 | 92 | 126 | 11.0 | 19.0 | 0.00 | 0.00 | 0.00 | 61 | 1008.8 |
| 20260505055041 | 92 | 103 | 11.0 | 17.0 | 0.00 | 0.00 | 0.00 | 62 | 1009.0 |
| 20260505054541 | 91 | 102 | 8.0 | 17.0 | 0.00 | 0.00 | 0.00 | 62 | 1009.0 |
| 20260505054041 | 91 | 117 | 11.0 | 21.0 | 0.00 | 0.00 | 0.00 | 62 | 1009.3 |
| 20260505053540 | 91 | 104 | 14.0 | 21.0 | 0.00 | 0.00 | 0.00 | 62 | 1009.2 |
| 20260505053041 | 92 | 115 | 8.0 | 18.0 | 0.00 | 0.00 | 0.00 | 60 | 1009.3 |
| 20260505052541 | 93 | 97 | 8.0 | 16.0 | 0.00 | 0.00 | 0.00 | 61 | 1009.3 |
| 20260505052041 | 92 | 94 | 7.0 | 14.0 | 0.00 | 0.00 | 0.00 | 61 | 1009.3 |
| 20260505051541 | 92 | 98 | 10.0 | 17.0 | 0.00 | 0.00 | 0.00 | 61 | 1009.5 |
| 20260505051041 | 91 | 160 | 6.0 | 18.0 | 0.00 | 0.00 | 0.00 | 62 | 1009.4 |
| 20260505050541 | 90 | 101 | 14.0 | 18.0 | 0.00 | 0.00 | 0.00 | 63 | 1009.4 |
| 20260505041541 | 90 | 133 | 4.0 | 19.0 | 0.00 | 0.00 | 0.00 | 64 | 1010.2 |
| 20260505041041 | 91 | 84 | 11.0 | 19.0 | 0.00 | 0.00 | 0.00 | 64 | 1010.2 |
| 20260505040541 | 91 | 101 | 8.0 | 19.0 | 0.00 | 0.00 | 0.00 | 62 | 1010.6 |
| 20260505035541 | 91 | 118 | 4.0 | 18.0 | 0.00 | 0.00 | 0.00 | 61 | 1010.1 |
| 20260505035041 | 91 | 148 | 4.0 | 18.0 | 0.00 | 0.00 | 0.00 | 62 | 1010.4 |
| 20260505034541 | 91 | 110 | 11.0 | 16.0 | 0.00 | 0.00 | 0.00 | 61 | 1010.4 |
| 20260505034041 | 90 | 70 | 7.0 | 19.0 | 0.00 | 0.00 | 0.00 | 61 | 1010.5 |
| 20260505033541 | 91 | 94 | 8.0 | 19.0 | 0.00 | 0.00 | 0.00 | 61 | 1010.4 |
| 20260505033041 | 91 | 114 | 13.0 | 15.0 | 0.00 | 0.00 | 0.00 | 59 | 1010.6 |
| 20260505032541 | 90 | 120 | 6.0 | 14.0 | 0.00 | 0.00 | 0.00 | 61 | 1010.8 |
| 20260505032041 | 91 | 111 | 4.0 | 15.0 | 0.00 | 0.00 | 0.00 | 62 | 1010.8 |
| 20260505031541 | 91 | 138 | 12.0 | 18.0 | 0.00 | 0.00 | 0.00 | 61 | 1010.8 |
| 20260505031041 | 90 | 97 | 9.0 | 23.0 | 0.00 | 0.00 | 0.00 | 62 | 1010.8 |
| 20260505030541 | 90 | 102 | 4.0 | 23.0 | 0.00 | 0.00 | 0.00 | 63 | 1010.8 |
| 20260505030041 | 91 | 104 | 6.0 | 15.0 | 0.00 | 0.00 | 0.00 | 61 | 1010.8 |
| 20260505025541 | 91 | 101 | 6.0 | 16.0 | 0.00 | 0.00 | 0.00 | 61 | 1010.8 |
| 20260505025041 | 90 | 140 | 5.0 | 18.0 | 0.00 | 0.00 | 0.00 | 63 | 1011.1 |
| 20260505024541 | 90 | 92 | 11.0 | 18.0 | 0.00 | 0.00 | 0.00 | 61 | 1010.9 |
| 20260505024041 | 90 | 64 | 6.0 | 17.0 | 0.00 | 0.00 | 0.00 | 63 | 1010.9 |
| 20260505023041 | 89 | 103 | 7.0 | 16.0 | 0.00 | 0.00 | 0.00 | 66 | 1011.2 |
| 20260505022541 | 89 | 101 | 9.0 | 16.0 | 0.00 | 0.00 | 0.00 | 66 | 1011.1 |
| 20260505021541 | 89 | 151 | 5.0 | 15.0 | 0.00 | 0.00 | 0.00 | 67 | 1011.2 |
| 20260505021041 | 88 | 99 | 10.0 | 17.0 | 0.00 | 0.00 | 0.00 | 66 | 1011.4 |
| 20260505020041 | 89 | 101 | 12.0 | 16.0 | 0.00 | 0.00 | 0.00 | 65 | 1011.4 |
| 20260505015541 | 89 | 87 | 6.0 | 17.0 | 0.00 | 0.00 | 0.00 | 64 | 1011.4 |
| 20260505015041 | 88 | 98 | 6.0 | 18.0 | 0.00 | 0.00 | 0.00 | 64 | 1011.5 |
| 20260505014541 | 88 | 127 | 14.0 | 18.0 | 0.00 | 0.00 | 0.00 | 64 | 1011.5 |
| 20260505014041 | 89 | 101 | 14.0 | 18.0 | 0.00 | 0.00 | 0.00 | 63 | 1011.7 |
| 20260505013041 | 89 | 92 | 9.0 | 13.0 | 0.00 | 0.00 | 0.00 | 66 | 1011.6 |
| 20260505012541 | 89 | 82 | 4.0 | 10.0 | 0.00 | 0.00 | 0.00 | 66 | 1011.7 |
| 20260505012042 | 89 | 104 | 8.0 | 9.0 | 0.00 | 0.00 | 0.00 | 65 | 1011.7 |
| 20260505011542 | 88 | 110 | 3.0 | 9.0 | 0.00 | 0.00 | 0.00 | 67 | 1011.4 |
| 20260505011041 | 88 | 91 | 9.0 | 14.0 | 0.00 | 0.00 | 0.00 | 66 | 1011.6 |
| 20260505010041 | 87 | 128 | 3.0 | 12.0 | 0.00 | 0.00 | 0.00 | 68 | 1011.5 |
| 20260505005541 | 87 | 145 | 3.0 | 12.0 | 0.00 | 0.00 | 0.00 | 68 | 1011.3 |
| 20260505004542 | 87 | 75 | 2.0 | 11.0 | 0.00 | 0.00 | 0.00 | 69 | 1011.4 |
| 20260505004041 | 88 | 108 | 8.0 | 10.0 | 0.00 | 0.00 | 0.00 | 67 | 1011.5 |
| 20260505003541 | 87 | 120 | 6.0 | 10.0 | 0.00 | 0.00 | 0.00 | 69 | 1011.7 |
| 20260505002541 | 87 | 39 | 4.0 | 11.0 | 0.00 | 0.00 | 0.00 | 69 | 1011.7 |
| 20260505001541 | 86 | 96 | 8.0 | 14.0 | 0.00 | 0.00 | 0.00 | 70 | 1011.5 |
| 20260505001041 | 86 | 96 | 10.0 | 14.0 | 0.00 | 0.00 | 0.00 | 70 | 1011.5 |
| 20260505000542 | 86 | 101 | 6.0 | 12.0 | 0.00 | 0.00 | 0.00 | 70 | 1011.6 |
| 20260505000041 | 86 | 96 | 6.0 | 11.0 | 0.00 | 0.00 | 0.00 | 70 | 1011.7 |
| 20260504235042 | 86 | 117 | 5.0 | 12.0 | 0.00 | 0.00 | 0.00 | 70 | 1011.7 |
| 20260504234541 | 86 | 98 | 2.0 | 12.0 | 0.00 | 0.00 | 0.00 | 70 | 1011.7 |
| 20260504234041 | 87 | 97 | 4.0 | 10.0 | 0.00 | 0.00 | 0.00 | 70 | 1011.8 |
| 20260504233041 | 86 | 167 | 3.0 | 10.0 | 0.00 | 0.00 | 0.00 | 71 | 1011.8 |
| 20260504232541 | 86 | 103 | 8.0 | 10.0 | 0.00 | 0.00 | 0.00 | 71 | 1012.0 |
| 20260504232042 | 85 | 89 | 4.0 | 13.0 | 0.00 | 0.00 | 0.00 | 71 | 1011.7 |
| 20260504231541 | 85 | 101 | 12.0 | 13.0 | 0.00 | 0.00 | 0.00 | 71 | 1011.5 |
| 20260504231041 | 85 | 76 | 5.0 | 11.0 | 0.00 | 0.00 | 0.00 | 71 | 1011.6 |
| 20260504230041 | 85 | 111 | 9.0 | 10.0 | 0.00 | 0.00 | 0.00 | 71 | 1011.2 |
| 20260504225041 | 84 | 105 | 2.0 | 9.0 | 0.00 | 0.00 | 0.00 | 72 | 1011.4 |
| 20260504224541 | 84 | 140 | 4.0 | 9.0 | 0.00 | 0.00 | 0.00 | 73 | 1011.3 |
| 20260504224041 | 84 | 70 | 4.0 | 9.0 | 0.00 | 0.00 | 0.00 | 72 | 1011.3 |
| 20260504223543 | 84 | 75 | 3.0 | 12.0 | 0.00 | 0.00 | 0.00 | 73 | 1011.2 |
| 20260504223041 | 84 | 103 | 7.0 | 12.0 | 0.00 | 0.00 | 0.00 | 73 | 1011.1 |
| 20260504222541 | 83 | 114 | 8.0 | 9.0 | 0.00 | 0.00 | 0.00 | 73 | 1011.0 |
| 20260504222041 | 83 | 101 | 3.0 | 9.0 | 0.00 | 0.00 | 0.00 | 74 | 1011.1 |
| 20260504221542 | 83 | 121 | 3.0 | 9.0 | 0.00 | 0.00 | 0.00 | 75 | 1011.1 |
| 20260504221041 | 83 | 101 | 4.0 | 8.0 | 0.00 | 0.00 | 0.00 | 75 | 1010.9 |
| 20260504220541 | 83 | 139 | 2.0 | 9.0 | 0.00 | 0.00 | 0.00 | 75 | 1011.0 |
| 20260504215541 | 82 | 102 | 6.0 | 11.0 | 0.00 | 0.00 | 0.00 | 76 | 1011.0 |
| 20260504215042 | 82 | 118 | 2.0 | 8.0 | 0.00 | 0.00 | 0.00 | 77 | 1011.1 |
| 20260504214541 | 82 | 110 | 2.0 | 6.0 | 0.00 | 0.00 | 0.00 | 77 | 1010.9 |
| 20260504214041 | 81 | 107 | 4.0 | 7.0 | 0.00 | 0.00 | 0.00 | 77 | 1010.9 |
| 20260504213041 | 82 | 115 | 3.0 | 8.0 | 0.00 | 0.00 | 0.00 | 77 | 1011.0 |
| 20260504212541 | 82 | 145 | 4.0 | 8.0 | 0.00 | 0.00 | 0.00 | 76 | 1010.9 |
| 20260504212041 | 82 | 125 | 4.0 | 8.0 | 0.00 | 0.00 | 0.00 | 77 | 1010.8 |
| 20260504211541 | 82 | 103 | 2.0 | 9.0 | 0.00 | 0.00 | 0.00 | 77 | 1010.9 |
| 20260504211041 | 82 | 74 | 2.0 | 10.0 | 0.00 | 0.00 | 0.00 | 76 | 1010.6 |
| 20260504210541 | 82 | 127 | 4.0 | 11.0 | 0.00 | 0.00 | 0.00 | 76 | 1010.7 |
| 20260504210041 | 82 | 72 | 3.0 | 11.0 | 0.00 | 0.00 | 0.00 | 76 | 1010.7 |
| 20260504205541 | 82 | 163 | 3.0 | 10.0 | 0.00 | 0.00 | 0.00 | 76 | 1010.7 |
| 20260504205041 | 82 | 123 | 4.0 | 10.0 | 0.00 | 0.00 | 0.00 | 76 | 1010.5 |
| 20260504204041 | 82 | 110 | 4.0 | 13.0 | 0.00 | 0.00 | 0.00 | 76 | 1010.7 |
| 20260504203542 | 82 | 139 | 4.0 | 13.0 | 0.00 | 0.00 | 0.00 | 76 | 1010.6 |
| 20260504202541 | 82 | 107 | 9.0 | 10.0 | 0.00 | 0.00 | 0.00 | 77 | 1010.6 |
| 20260504202041 | 82 | 103 | 8.0 | 11.0 | 0.00 | 0.00 | 0.00 | 76 | 1010.3 |
| 20260504201541 | 82 | 140 | 4.0 | 13.0 | 0.00 | 0.00 | 0.00 | 76 | 1010.3 |
| 20260504201042 | 82 | 117 | 2.0 | 13.0 | 0.00 | 0.00 | 0.00 | 76 | 1010.2 |
| 20260504200541 | 82 | 92 | 8.0 | 9.0 | 0.00 | 0.00 | 0.00 | 76 | 1010.3 |
| 20260504195541 | 82 | 134 | 1.0 | 9.0 | 0.00 | 0.00 | 0.00 | 76 | 1010.3 |
| 20260504195042 | 82 | 180 | 2.0 | 9.0 | 0.00 | 0.00 | 0.00 | 76 | 1010.3 |
| 20260504194541 | 82 | 134 | 5.0 | 9.0 | 0.00 | 0.00 | 0.00 | 76 | 1010.3 |
| 20260504194041 | 82 | 143 | 2.0 | 10.0 | 0.00 | 0.00 | 0.00 | 76 | 1010.6 |
| 20260504193541 | 82 | 96 | 9.0 | 10.0 | 0.00 | 0.00 | 0.00 | 76 | 1010.3 |
| 20260504192541 | 82 | 157 | 2.0 | 9.0 | 0.00 | 0.00 | 0.00 | 76 | 1010.3 |
| 20260504192041 | 82 | 137 | 3.0 | 9.0 | 0.00 | 0.00 | 0.00 | 76 | 1010.3 |
| 20260504191540 | 82 | 84 | 5.0 | 9.0 | 0.00 | 0.00 | 0.00 | 76 | 1010.2 |
| 20260504191041 | 82 | 155 | 3.0 | 8.0 | 0.00 | 0.00 | 0.00 | 76 | 1010.4 |
| 20260504190041 | 82 | 138 | 2.0 | 12.0 | 0.00 | 0.00 | 0.00 | 75 | 1010.3 |
| 20260504185541 | 82 | 127 | 3.0 | 12.0 | 0.00 | 0.00 | 0.00 | 75 | 1010.4 |
| 20260504184041 | 82 | 130 | 5.0 | 12.0 | 0.00 | 0.00 | 0.00 | 74 | 1010.5 |
| 20260504183541 | 82 | 121 | 6.0 | 13.0 | 0.00 | 0.00 | 0.00 | 73 | 1010.4 |
| 20260504182041 | 82 | 104 | 3.0 | 15.0 | 0.00 | 0.00 | 0.00 | 73 | 1010.6 |
| 20260504181042 | 82 | 128 | 8.0 | 13.0 | 0.00 | 0.00 | 0.00 | 73 | 1010.5 |
| 20260504180541 | 82 | 101 | 5.0 | 11.0 | 0.00 | 0.00 | 0.00 | 74 | 1010.5 |
| 20260504180041 | 82 | 102 | 4.0 | 10.0 | 0.00 | 0.00 | 0.00 | 74 | 1010.5 |
| 20260504175541 | 82 | 124 | 6.0 | 13.0 | 0.00 | 0.00 | 0.00 | 74 | 1010.6 |
| 20260504175041 | 82 | 94 | 6.0 | 13.0 | 0.00 | 0.00 | 0.00 | 73 | 1010.8 |
| 20260504174541 | 82 | 118 | 6.0 | 17.0 | 0.00 | 0.00 | 0.00 | 74 | 1010.9 |
| 20260504174041 | 82 | 146 | 8.0 | 17.0 | 0.00 | 0.00 | 0.00 | 73 | 1010.9 |
| 20260504173541 | 82 | 119 | 6.0 | 12.0 | 0.00 | 0.00 | 0.00 | 74 | 1011.0 |
| 20260504173042 | 82 | 83 | 1.0 | 11.0 | 0.00 | 0.00 | 0.00 | 74 | 1011.0 |
| 20260504172541 | 82 | 84 | 4.0 | 11.0 | 0.00 | 0.00 | 0.00 | 75 | 1011.1 |
| 20260504172041 | 82 | 111 | 4.0 | 12.0 | 0.00 | 0.00 | 0.00 | 74 | 1011.2 |
| 20260504171541 | 82 | 133 | 3.0 | 12.0 | 0.00 | 0.00 | 0.00 | 75 | 1011.4 |
| 20260504171041 | 83 | 103 | 8.0 | 11.0 | 0.00 | 0.00 | 0.00 | 75 | 1011.2 |
| 20260504170541 | 83 | 65 | 4.0 | 11.0 | 0.00 | 0.00 | 0.00 | 75 | 1011.2 |
| 20260504150541 | 83 | 102 | 11.0 | 15.0 | 0.00 | 0.00 | 0.00 | 74 | 1012.1 |
| 20260504141041 | 83 | 120 | 6.0 | 14.0 | 0.00 | 0.00 | 0.00 | 78 | 1011.8 |
| 20260504140540 | 83 | 150 | 12.0 | 13.0 | 0.00 | 0.00 | 0.00 | 78 | 1011.7 |
| 20260504130541 | 85 | 105 | 5.0 | 14.0 | 0.00 | 0.00 | 0.00 | 69 | 1011.4 |
| 20260504110541 | 86 | 128 | 4.0 | 16.0 | 0.00 | 0.00 | 0.00 | 69 | 1010.8 |
| 20260504100541 | 88 | 143 | 2.0 | 12.0 | 0.00 | 0.00 | 0.00 | 62 | 1009.8 |
| 20260504081541 | 92 | 82 | 9.0 | 16.0 | 0.00 | 0.00 | 0.00 | 58 | 1009.0 |
| 20260504081041 | 92 | 107 | 11.0 | 16.0 | 0.00 | 0.00 | 0.00 | 59 | 1008.9 |